Погода в Уахигуя

Буркина-Фасо     13°33′53″N   2°24′47″W
темп.,
°C
ветер,
м/с
пор.,
м/с
влажн.,
%
обл.,
%
осадки,
мм/ч
давл.,
гПа
погр.,
м
6 марта, сб
сб600:00+28св45141 0.0 100959
03:00+26всв451524 0.0 100875
06:00+25всв451517 0.0 100989
09:00+32в681167 0.0 1012501
12:00+38вюв78834 0.0 10102295
15:00+39вюв55858 0.0 10063048
18:00+34в231444 0.0 100724
21:00+30вюв23200 0.0 101024
7 марта, вс
вс700:00+26юв01321 0.0 101024
03:00+25з11420 0.0 100924
06:00+25зсз23431 0.0 101024
09:00+32сз23330 0.0 1012432
12:00+38ссз021910 0.0 10102602
15:00+40в121313 0.0 10063861
18:00+36вюв351453 0.0 1006121
21:00+30ю232259 0.0 100824
8 марта, пн
пн800:00+27в112173 0.0 100824
03:00+28вюв34187 0.0 100624
06:00+26ююв34194 0.0 100726
09:00+34зюз12110 0.0 1009325
12:00+40вюв3480 0.0 10073040
15:00+41вюв23946 0.0 10034225
18:00+37юв341372 0.0 100379
21:00+30ссв231733 0.0 100629
9 марта, вт
вт900:00+30вюв452016 0.0 100638
03:00+29вюв45230 0.0 100564
06:00+28юв45340 0.0 100670
09:00+33вюв34230 0.0 1007462
12:00+39ю55160 0.0 10051711
15:00+41ю44152 0.0 10013958
18:00+37зюз231837 0.0 100271
21:00+35всв2320100 0.0 100525
10 марта, ср
ср1000:00+33ю462398 0.0 1005111
03:00+31юв343046 0.0 100553
06:00+29зсз023854 0.0 100645
09:00+33с22290 0.0 1009737
12:00+38юз11210 0.0 10071724
15:00+40ююз22151 0.0 10034048
18:00+36ю122050 0.1 1004126
21:00+31ююв122466 0.0 100624